Weather in Gnezdilovo

Russia / Ivanovo Oblast     56°44′25″N   41°12′22″E
temp.,
°C
wind,
m/s
gust,
m/s
humid.,
%
clouds,
%
prec.,
mm/h
press.,
hPa
HPBL,
m
19 january, wed
wed1900:00−12nw4119472 0.0 1013286
03:00−14wnw279659 0.0 1014134
06:00−16wnw259876 0.0 101581
09:00−17w249975 0.1 101560
12:00−12w239361 0.0 1015149
15:00−11sw25955 0.0 1015139
18:00−16ssw399695 0.0 1014131
21:00−13ssw3119190 0.0 1013215
20 january, thu
thu2000:00−11ssw41486100 0.0 1012359
03:00−10ssw51590100 0.0 1010415
06:00−9ssw51593100 0.0 1008460
09:00−8s51493100 0.2 1008467
12:00−6s51493100 0.1 1007472
15:00−6s51493100 0.3 1006546
18:00−7s51492100 0.1 1006542
21:00−8s61592100 0.1 1006597
21 january, fri
fri2100:00−9s61592100 0.1 1006587
03:00−9s51492100 0.2 1006570
06:00−9sse51394100 0.3 1006557
09:00−8sse51294100 0.7 1006522
12:00−8sse51294100 0.8 1006494
15:00−7se51394100 1.5 1005684
18:00−8se51393100 0.9 1006798
21:00−8se51292100 1.1 1006653
22 january, sat
sat2200:00−7ese51294100 0.4 1006606
03:00−7ese51194100 1.0 1007630
06:00−7se4109496 0.5 1008457
09:00−10ese399695 0.6 1012229
12:00−8ese3996100 0.0 1014340
15:00−7ese389594 0.1 1016332
18:00−12e289985 0.0 1019109
21:00−15ene2210091 0.1 102115
23 january, sun
sun2300:00−19ene11100100 0.0 102311
03:00−21ene11100100 0.1 102510
06:00−17ne129997 0.1 102656
09:00−20ne11100100 0.1 102822
12:00−12nne1296100 0.1 1029119
15:00−10n139681 0.1 1030152
18:00−18n1110076 0.0 10329
21:00−21nnw1110098 0.0 10349